Back to Top

Language: 

My Weather Underground Personal Weather Station Historical Data with Graphs...

Delerius Weather Station Historical Data
Daily Summary for April 26, 2017 Units:  Metric    English   Both
« Previous Day
Next Day »
Daily Weekly Monthly Yearly Custom
  High: Low: Average:
Temperature: 9.9 °C 1.2 °C 5.7 °C
Dew Point: 2.1 °C -1.1 °C 0.4 °C
Humidity: 86 % 49 % 70 %
Wind Speed: 17.7 km/h 0 km/h 8 km/h
Wind Gust: 32.2 km/h - -
Wind:- - SW
Pressure: 1020.9 hPa 1017.5 hPa -
Precipitation: 0.25 mm    
Historical Graphs
 
 
Tabular Data for April 26, 2017
Time Temperature Dew Point Pressure Wind Wind Speed Wind Gust Humidity Rainfall Rate (Hourly) solar Conditions
00:04 4.2 °C 1.6 °C 1017.5 hPa NNW 9.7 km/h 25.7 km/h 83 % 0 mm 0 W/m2
00:09 4.2 °C 1.6 °C 1017.5 hPa NNW 9.7 km/h 25.7 km/h 83 % 0 mm 0 W/m2
00:14 4.1 °C 1.4 °C 1017.5 hPa NNW 9.7 km/h 22.5 km/h 83 % 0 mm 0 W/m2
00:19 4.1 °C 1.4 °C 1017.5 hPa NNW 8 km/h 24.1 km/h 83 % 0 mm 0 W/m2
00:24 4 °C 1.4 °C 1017.5 hPa NNW 9.7 km/h 25.7 km/h 83 % 0 mm 0 W/m2
00:29 4 °C 1.4 °C 1017.5 hPa NNW 12.9 km/h 29 km/h 83 % 0 mm 0 W/m2
00:34 3.9 °C 1.3 °C 1017.5 hPa NNW 14.5 km/h 29 km/h 83 % 0 mm 0 W/m2
00:39 3.9 °C 1.4 °C 1017.5 hPa NNW 14.5 km/h 29 km/h 84 % 0 mm 0 W/m2
00:44 3.9 °C 1.6 °C 1017.5 hPa NNW 12.9 km/h 24.1 km/h 85 % 0 mm 0 W/m2
00:49 3.8 °C 1.5 °C 1017.5 hPa NNW 12.9 km/h 24.1 km/h 85 % 0 mm 0 W/m2
00:54 3.8 °C 1.5 °C 1017.5 hPa NNW 12.9 km/h 32.2 km/h 85 % 0 mm 0 W/m2
00:59 3.7 °C 1.4 °C 1017.5 hPa NNW 12.9 km/h 32.2 km/h 85 % 0 mm 0 W/m2
01:04 3.7 °C 1.6 °C 1017.5 hPa NNW 12.9 km/h 25.7 km/h 86 % 0 mm 0 W/m2
01:09 3.7 °C 1.6 °C 1017.5 hPa NNW 9.7 km/h 22.5 km/h 86 % 0 mm 0 W/m2
01:14 3.8 °C 1.5 °C 1017.5 hPa NNW 9.7 km/h 22.5 km/h 85 % 0 mm 0 W/m2
01:20 3.8 °C 1.5 °C 1017.5 hPa NNW 11.3 km/h 20.9 km/h 85 % 0 mm 0 W/m2
01:25 3.8 °C 1.5 °C 1017.5 hPa NNW 11.3 km/h 20.9 km/h 85 % 0 mm 0 W/m2
01:30 3.8 °C 1.5 °C 1017.5 hPa NNW 11.3 km/h 24.1 km/h 85 % 0 mm 0 W/m2
01:35 3.8 °C 1.7 °C 1017.5 hPa NNW 11.3 km/h 25.7 km/h 86 % 0 mm 0 W/m2
01:40 3.8 °C 1.7 °C 1017.8 hPa NNW 11.3 km/h 25.7 km/h 86 % 0.25 mm 0 W/m2
01:45 3.8 °C 1.7 °C 1017.5 hPa NNW 12.9 km/h 24.1 km/h 86 % 0.25 mm 0 W/m2
01:50 3.8 °C 1.7 °C 1017.8 hPa NNW 11.3 km/h 24.1 km/h 86 % 0.25 mm 0 W/m2
01:55 3.8 °C 1.7 °C 1017.5 hPa NNW 9.7 km/h 24.1 km/h 86 % 0.25 mm 0 W/m2
02:05 3.7 °C 1.6 °C 1017.8 hPa NNW 11.3 km/h 20.9 km/h 86 % 0.25 mm 0 W/m2
02:10 3.7 °C 1.6 °C 1017.8 hPa NNW 9.7 km/h 20.9 km/h 86 % 0.25 mm 0 W/m2
02:15 3.7 °C 1.6 °C 1017.8 hPa NNW 9.7 km/h 25.7 km/h 86 % 0.25 mm 0 W/m2
02:20 3.8 °C 1.7 °C 1017.5 hPa NNW 9.7 km/h 25.7 km/h 86 % 0.25 mm 0 W/m2
02:25 3.8 °C 1.5 °C 1017.8 hPa NNW 9.7 km/h 24.1 km/h 85 % 0.25 mm 0 W/m2
02:30 3.8 °C 1.3 °C 1017.8 hPa NNW 12.9 km/h 25.7 km/h 84 % 0.25 mm 0 W/m2
02:35 3.8 °C 1.3 °C 1017.8 hPa NNW 11.3 km/h 25.7 km/h 84 % 0.25 mm 0 W/m2
02:40 3.8 °C 1.3 °C 1017.8 hPa NNW 9.7 km/h 22.5 km/h 84 % 0 mm 0 W/m2
02:45 3.8 °C 1.3 °C 1017.8 hPa NNW 11.3 km/h 29 km/h 84 % 0 mm 0 W/m2
02:50 3.7 °C 1.2 °C 1017.5 hPa NNW 11.3 km/h 29 km/h 84 % 0 mm 0 W/m2
02:55 3.7 °C 1.2 °C 1017.5 hPa NNW 11.3 km/h 22.5 km/h 84 % 0 mm 0 W/m2
03:00 3.7 °C 1.2 °C 1017.8 hPa NNW 9.7 km/h 19.3 km/h 84 % 0 mm 0 W/m2
03:05 3.7 °C 1.2 °C 1017.8 hPa NNW 9.7 km/h 22.5 km/h 84 % 0 mm 0 W/m2
03:10 3.7 °C 1.2 °C 1017.8 hPa NNW 9.7 km/h 22.5 km/h 84 % 0 mm 0 W/m2
03:15 3.7 °C 1.2 °C 1017.8 hPa NNW 9.7 km/h 20.9 km/h 84 % 0 mm 0 W/m2
03:20 3.7 °C 1.2 °C 1017.8 hPa NNW 11.3 km/h 20.9 km/h 84 % 0 mm 0 W/m2
03:25 3.7 °C 1.2 °C 1017.8 hPa NNW 11.3 km/h 22.5 km/h 84 % 0 mm 0 W/m2
03:30 3.6 °C 1.2 °C 1017.8 hPa NNW 11.3 km/h 22.5 km/h 84 % 0 mm 0 W/m2
03:35 3.6 °C 1 °C 1017.8 hPa NW 9.7 km/h 19.3 km/h 83 % 0 mm 0 W/m2
03:40 3.5 °C 0.9 °C 1017.8 hPa NW 9.7 km/h 19.3 km/h 83 % 0 mm 0 W/m2
03:45 3.4 °C 0.9 °C 1017.8 hPa NW 9.7 km/h 20.9 km/h 84 % 0 mm 0 W/m2
03:50 3.4 °C 0.9 °C 1017.8 hPa NW 9.7 km/h 20.9 km/h 84 % 0 mm 0 W/m2
03:56 3.3 °C 0.8 °C 1017.8 hPa NW 8 km/h 19.3 km/h 84 % 0 mm 0 W/m2
04:01 3.3 °C 0.8 °C 1017.8 hPa NNW 8 km/h 17.7 km/h 84 % 0 mm 0 W/m2
04:06 3.3 °C 0.8 °C 1017.8 hPa NNW 8 km/h 19.3 km/h 84 % 0 mm 0 W/m2
04:11 3.3 °C 0.8 °C 1017.8 hPa NW 9.7 km/h 19.3 km/h 84 % 0 mm 0 W/m2
04:21 3.3 °C 0.8 °C 1017.8 hPa NNW 8 km/h 19.3 km/h 84 % 0 mm 0 W/m2
04:26 3.3 °C 0.7 °C 1017.8 hPa NNW 9.7 km/h 22.5 km/h 83 % 0 mm 0 W/m2
04:31 3.3 °C 0.7 °C 1017.8 hPa NNW 8 km/h 22.5 km/h 83 % 0 mm 0 W/m2
04:41 3.3 °C 0.7 °C 1017.8 hPa NNW 9.7 km/h 22.5 km/h 83 % 0 mm 0 W/m2
04:46 3.2 °C 0.6 °C 1017.8 hPa NNW 8 km/h 22.5 km/h 83 % 0 mm 0 W/m2
04:51 3.2 °C 0.6 °C 1017.8 hPa NNW 9.7 km/h 22.5 km/h 83 % 0 mm 0 W/m2
04:56 3.2 °C 0.6 °C 1017.8 hPa NNW 9.7 km/h 20.9 km/h 83 % 0 mm 0 W/m2
05:01 3.2 °C 0.6 °C 1018.2 hPa NNW 9.7 km/h 19.3 km/h 83 % 0 mm 0 W/m2
05:06 3.2 °C 0.6 °C 1018.2 hPa NNW 9.7 km/h 19.3 km/h 83 % 0 mm 0 W/m2
05:11 3.3 °C 0.7 °C 1018.2 hPa NNW 8 km/h 20.9 km/h 83 % 0 mm 0 W/m2
05:16 3.3 °C 0.7 °C 1018.2 hPa NNW 9.7 km/h 20.9 km/h 83 % 0 mm 0 W/m2
05:21 3.3 °C 0.7 °C 1018.2 hPa NW 9.7 km/h 19.3 km/h 83 % 0 mm 0 W/m2
05:26 3.3 °C 0.5 °C 1018.2 hPa NW 9.7 km/h 19.3 km/h 82 % 0 mm 0 W/m2
05:31 3.3 °C 0.5 °C 1018.2 hPa NW 8 km/h 17.7 km/h 82 % 0 mm 0 W/m2
05:36 3.3 °C 0.5 °C 1018.2 hPa NW 8 km/h 16.1 km/h 82 % 0 mm 0 W/m2
05:41 3.2 °C 0.6 °C 1018.2 hPa NW 8 km/h 17.7 km/h 83 % 0 mm 0 W/m2
05:46 3.2 °C 0.4 °C 1018.2 hPa NW 8 km/h 17.7 km/h 82 % 0 mm 5 W/m2
05:51 3.1 °C 0.3 °C 1018.2 hPa NW 8 km/h 25.7 km/h 82 % 0 mm 7 W/m2
05:56 3.1 °C 0.3 °C 1018.2 hPa NW 9.7 km/h 25.7 km/h 82 % 0 mm 9 W/m2
06:01 3 °C 0.2 °C 1018.2 hPa NW 11.3 km/h 22.5 km/h 82 % 0 mm 12 W/m2
06:06 2.9 °C 0.1 °C 1018.5 hPa NW 9.7 km/h 22.5 km/h 82 % 0 mm 18 W/m2
06:11 2.9 °C 0.1 °C 1018.5 hPa NW 8 km/h 16.1 km/h 82 % 0 mm 26 W/m2
06:16 2.9 °C 0.1 °C 1018.5 hPa NW 6.4 km/h 14.5 km/h 82 % 0 mm 25 W/m2
06:21 2.9 °C 0.1 °C 1018.5 hPa NW 6.4 km/h 16.1 km/h 82 % 0 mm 42 W/m2
06:26 2.9 °C 0.1 °C 1018.5 hPa NW 8 km/h 16.1 km/h 82 % 0 mm 47 W/m2
06:31 2.9 °C 0.3 °C 1018.5 hPa NW 6.4 km/h 16.1 km/h 83 % 0 mm 44 W/m2
06:36 2.9 °C 0.3 °C 1018.8 hPa NW 4.8 km/h 22.5 km/h 83 % 0 mm 53 W/m2
06:41 3 °C 0.2 °C 1018.8 hPa NW 6.4 km/h 22.5 km/h 82 % 0 mm 46 W/m2
06:46 3.1 °C 0.3 °C 1018.8 hPa NNW 6.4 km/h 17.7 km/h 82 % 0 mm 63 W/m2
06:51 3.1 °C 0.2 °C 1018.8 hPa NNW 9.7 km/h 22.5 km/h 81 % 0 mm 56 W/m2
06:56 3.1 °C 0.2 °C 1018.8 hPa NW 11.3 km/h 22.5 km/h 81 % 0 mm 72 W/m2
07:00 3.2 °C 0.3 °C 1018.8 hPa NW 9.7 km/h 22.5 km/h 81 % 0 mm 91 W/m2
07:05 3.3 °C 0.3 °C 1018.8 hPa NW 8 km/h 22.5 km/h 81 % 0 mm 46 W/m2
07:10 3.3 °C 0.3 °C 1018.8 hPa NW 6.4 km/h 17.7 km/h 81 % 0 mm 67 W/m2
07:20 3.5 °C 0.4 °C 1018.8 hPa NW 8 km/h 17.7 km/h 80 % 0 mm 116 W/m2
07:25 3.8 °C 0.7 °C 1018.8 hPa NNW 9.7 km/h 25.7 km/h 80 % 0 mm 239 W/m2
07:30 4.2 °C 0.9 °C 1018.8 hPa NNW 9.7 km/h 25.7 km/h 79 % 0 mm 287 W/m2
07:35 4.5 °C 0.8 °C 1018.8 hPa NNW 9.7 km/h 19.3 km/h 77 % 0 mm 294 W/m2
07:40 4.8 °C 0.9 °C 1018.8 hPa NNW 12.9 km/h 30.6 km/h 76 % 0 mm 285 W/m2
07:45 4.9 °C 0.7 °C 1018.8 hPa NNW 14.5 km/h 30.6 km/h 74 % 0 mm 276 W/m2
07:50 4.9 °C 0.7 °C 1018.8 hPa NNW 14.5 km/h 29 km/h 74 % 0 mm 292 W/m2
07:55 5 °C 0.6 °C 1018.8 hPa NNW 11.3 km/h 24.1 km/h 73 % 0 mm 306 W/m2
08:00 5.1 °C 0.7 °C 1019.2 hPa NNW 12.9 km/h 24.1 km/h 73 % 0 mm 336 W/m2
08:05 5.2 °C 0.6 °C 1019.2 hPa NNW 12.9 km/h 29 km/h 72 % 0 mm 371 W/m2
08:10 5.2 °C 0.6 °C 1019.2 hPa NNW 12.9 km/h 30.6 km/h 72 % 0 mm 130 W/m2
08:15 5.1 °C 0.4 °C 1019.2 hPa NNW 12.9 km/h 30.6 km/h 72 % 0 mm 193 W/m2
08:20 5.1 °C 0.7 °C 1019.2 hPa NNW 11.3 km/h 25.7 km/h 73 % 0 mm 297 W/m2
08:25 5.4 °C 0.9 °C 1019.2 hPa NNW 9.7 km/h 20.9 km/h 73 % 0 mm 499 W/m2
08:30 5.8 °C 0.9 °C 1019.2 hPa NNW 11.3 km/h 24.1 km/h 71 % 0 mm 418 W/m2
08:35 6 °C 0.9 °C 1019.2 hPa NNW 12.9 km/h 24.1 km/h 70 % 0 mm 557 W/m2
08:40 6.2 °C 1.1 °C 1019.2 hPa NNW 12.9 km/h 20.9 km/h 70 % 0 mm 306 W/m2
08:45 6.4 °C 1.1 °C 1019.2 hPa NNW 11.3 km/h 20.9 km/h 69 % 0 mm 188 W/m2
08:50 6.3 °C 0.8 °C 1019.2 hPa NNW 11.3 km/h 20.9 km/h 68 % 0 mm 197 W/m2
08:55 6.1 °C 0.8 °C 1019.2 hPa NNW 11.3 km/h 20.9 km/h 69 % 0 mm 181 W/m2
09:00 6 °C 0.7 °C 1019.5 hPa NNW 11.3 km/h 24.1 km/h 69 % 0 mm 193 W/m2
09:05 5.8 °C 0.6 °C 1019.2 hPa NNW 12.9 km/h 24.1 km/h 69 % 0 mm 320 W/m2
09:10 5.9 °C 0.8 °C 1019.2 hPa NNW 11.3 km/h 24.1 km/h 70 % 0 mm 735 W/m2
09:15 6.4 °C 1.3 °C 1019.2 hPa NNW 12.9 km/h 29 km/h 70 % 0 mm 729 W/m2
09:20 6.8 °C 1.5 °C 1019.2 hPa NNW 12.9 km/h 29 km/h 69 % 0 mm 729 W/m2
09:25 7.1 °C 1.4 °C 1019.2 hPa NNW 14.5 km/h 32.2 km/h 67 % 0 mm 671 W/m2
09:30 7.1 °C 0.9 °C 1019.2 hPa NNW 14.5 km/h 32.2 km/h 65 % 0 mm 244 W/m2
09:35 7.1 °C 0.9 °C 1019.5 hPa North 14.5 km/h 24.1 km/h 65 % 0 mm 306 W/m2
09:40 6.8 °C 0.7 °C 1019.5 hPa North 12.9 km/h 24.1 km/h 65 % 0 mm 367 W/m2
09:45 6.6 °C 0.3 °C 1019.5 hPa North 11.3 km/h 24.1 km/h 64 % 0 mm 202 W/m2
09:50 6.6 °C 0.7 °C 1019.5 hPa North 12.9 km/h 29 km/h 66 % 0 mm 250 W/m2
09:55 6.6 °C 0.3 °C 1019.5 hPa North 14.5 km/h 29 km/h 64 % 0 mm 404 W/m2
10:00 6.6 °C 0.3 °C 1019.5 hPa NNE 14.5 km/h 29 km/h 64 % 0 mm 404 W/m2
10:05 6.7 °C 0.6 °C 1019.5 hPa North 14.5 km/h 29 km/h 65 % 0 mm 329 W/m2
10:11 6.7 °C 0.6 °C 1019.2 hPa North 12.9 km/h 20.9 km/h 65 % 0 mm 250 W/m2
10:16 6.8 °C 0.7 °C 1019.5 hPa North 12.9 km/h 29 km/h 65 % 0 mm 207 W/m2
10:21 6.8 °C 0.4 °C 1019.2 hPa NNW 12.9 km/h 29 km/h 64 % 0 mm 262 W/m2
10:26 6.8 °C 0.7 °C 1019.2 hPa NNW 12.9 km/h 29 km/h 65 % 0 mm 193 W/m2
10:36 6.6 °C 0.5 °C 1019.5 hPa North 9.7 km/h 22.5 km/h 65 % 0 mm 192 W/m2
10:41 6.7 °C 0.4 °C 1019.5 hPa North 9.7 km/h 22.5 km/h 64 % 0 mm 195 W/m2
10:46 6.7 °C 0.4 °C 1019.5 hPa North 9.7 km/h 20.9 km/h 64 % 0 mm 160 W/m2
10:51 6.7 °C 0.4 °C 1019.5 hPa North 8 km/h 19.3 km/h 64 % 0 mm 163 W/m2
10:56 6.6 °C 0.5 °C 1019.5 hPa NNE 11.3 km/h 30.6 km/h 65 % 0 mm 357 W/m2
10:57 6.6 °C 0.7 °C 1019.5 hPa NNE 12.9 km/h 30.6 km/h 66 % 0 mm 357 W/m2
11:02 6.7 °C 0.8 °C 1019.5 hPa NNE 12.9 km/h 22.5 km/h 66 % 0 mm 288 W/m2
11:08 6.7 °C 0.8 °C 1019.5 hPa NNE 11.3 km/h 20.9 km/h 66 % 0 mm 345 W/m2
11:13 6.8 °C 0.9 °C 1019.5 hPa NNE 9.7 km/h 20.9 km/h 66 % 0 mm 186 W/m2
11:18 6.8 °C 0.7 °C 1019.9 hPa NNE 11.3 km/h 24.1 km/h 65 % 0 mm 302 W/m2
11:23 6.9 °C 0.6 °C 1019.5 hPa North 12.9 km/h 24.1 km/h 64 % 0 mm 246 W/m2
11:28 6.9 °C 0.6 °C 1019.9 hPa North 11.3 km/h 24.1 km/h 64 % 0 mm 218 W/m2
11:33 7 °C 0.4 °C 1019.9 hPa North 9.7 km/h 24.1 km/h 63 % 0 mm 334 W/m2
11:38 7.2 °C 0.8 °C 1019.9 hPa North 9.7 km/h 24.1 km/h 64 % 0 mm 229 W/m2
11:43 7.3 °C 0.7 °C 1019.9 hPa NNW 9.7 km/h 22.5 km/h 63 % 0 mm 141 W/m2
11:48 7.2 °C 0.2 °C 1019.9 hPa North 9.7 km/h 22.5 km/h 61 % 0 mm 188 W/m2
11:53 7.1 °C -0.2 °C 1019.9 hPa North 9.7 km/h 22.5 km/h 60 % 0 mm 255 W/m2
11:58 7.2 °C -0.1 °C 1019.9 hPa North 9.7 km/h 19.3 km/h 60 % 0 mm 352 W/m2
12:03 7.4 °C 0.6 °C 1019.9 hPa North 9.7 km/h 19.3 km/h 62 % 0 mm 366 W/m2
12:08 7.6 °C 0.3 °C 1019.9 hPa North 11.3 km/h 20.9 km/h 60 % 0 mm 369 W/m2
12:13 7.7 °C 0.2 °C 1019.9 hPa North 11.3 km/h 20.9 km/h 59 % 0 mm 452 W/m2
12:18 8 °C 0.2 °C 1019.9 hPa NNW 11.3 km/h 22.5 km/h 58 % 0 mm 475 W/m2
12:23 8.1 °C 0.1 °C 1019.9 hPa NNW 11.3 km/h 22.5 km/h 57 % 0 mm 369 W/m2
12:28 8.1 °C -0.2 °C 1019.9 hPa North 11.3 km/h 20.9 km/h 56 % 0 mm 269 W/m2
12:33 8.3 °C 0 °C 1019.9 hPa NNW 9.7 km/h 19.3 km/h 56 % 0 mm 278 W/m2
12:38 8.7 °C 0.7 °C 1019.9 hPa NNW 9.7 km/h 19.3 km/h 57 % 0 mm 338 W/m2
12:43 8.9 °C 0.1 °C 1019.9 hPa North 8 km/h 19.3 km/h 54 % 0 mm 230 W/m2
12:48 8.8 °C -0.3 °C 1019.5 hPa North 9.7 km/h 24.1 km/h 53 % 0 mm 232 W/m2
12:53 8.3 °C -0.7 °C 1019.9 hPa North 11.3 km/h 24.1 km/h 53 % 0 mm 332 W/m2
12:58 8.6 °C 0.3 °C 1019.5 hPa NNE 9.7 km/h 20.9 km/h 56 % 0 mm 991 W/m2
13:03 8.9 °C 0.3 °C 1019.5 hPa NNE 8 km/h 17.7 km/h 55 % 0 mm 1090 W/m2
13:08 9.1 °C 0.5 °C 1019.5 hPa NNE 9.7 km/h 22.5 km/h 55 % 0 mm 248 W/m2
13:13 9.1 °C 0 °C 1019.5 hPa NNE 9.7 km/h 22.5 km/h 53 % 0 mm 237 W/m2
13:18 8.8 °C -0.3 °C 1019.5 hPa NNE 11.3 km/h 24.1 km/h 53 % 0 mm 265 W/m2
13:23 8.4 °C 0.1 °C 1019.5 hPa NNE 12.9 km/h 24.1 km/h 56 % 0 mm 693 W/m2
13:28 8.6 °C 0.3 °C 1019.5 hPa NNE 9.7 km/h 19.3 km/h 56 % 0 mm 693 W/m2
13:33 8.8 °C 0 °C 1019.5 hPa NNE 9.7 km/h 19.3 km/h 54 % 0 mm 299 W/m2
13:39 8.9 °C -0.2 °C 1019.5 hPa NNE 8 km/h 19.3 km/h 53 % 0 mm 294 W/m2
13:44 9 °C -0.9 °C 1019.5 hPa North 9.7 km/h 20.9 km/h 50 % 0 mm 290 W/m2
13:49 9.1 °C -0.3 °C 1019.5 hPa North 6.4 km/h 20.9 km/h 52 % 0 mm 309 W/m2
13:54 9.2 °C -0.2 °C 1019.5 hPa NNW 4.8 km/h 16.1 km/h 52 % 0 mm 167 W/m2
13:59 9.1 °C -0.8 °C 1019.5 hPa NNW 8 km/h 17.7 km/h 50 % 0 mm 234 W/m2
14:04 9.2 °C -0.2 °C 1019.5 hPa NNW 9.7 km/h 20.9 km/h 52 % 0 mm 1034 W/m2
14:09 9.5 °C 1.9 °C 1019.9 hPa NNW 12.9 km/h 30.6 km/h 59 % 0 mm 162 W/m2
14:14 8.8 °C 1.7 °C 1019.9 hPa NW 16.1 km/h 32.2 km/h 61 % 0 mm 130 W/m2
14:19 8.1 °C 2.1 °C 1019.9 hPa NW 17.7 km/h 32.2 km/h 66 % 0 mm 169 W/m2
14:24 7.6 °C 1.8 °C 1019.9 hPa NW 16.1 km/h 25.7 km/h 67 % 0 mm 165 W/m2
14:29 7.2 °C 1.5 °C 1020.2 hPa NW 16.1 km/h 24.1 km/h 67 % 0 mm 132 W/m2
14:34 7 °C 1.7 °C 1020.2 hPa WNW 16.1 km/h 25.7 km/h 69 % 0 mm 118 W/m2
14:39 6.8 °C 1.7 °C 1019.9 hPa WNW 11.3 km/h 25.7 km/h 70 % 0 mm 130 W/m2
14:44 6.8 °C 0.9 °C 1019.9 hPa NW 9.7 km/h 22.5 km/h 66 % 0 mm 149 W/m2
14:49 6.8 °C 0.7 °C 1019.9 hPa NW 9.7 km/h 22.5 km/h 65 % 0 mm 160 W/m2
14:50 6.8 °C 0.7 °C 1019.9 hPa NW 9.7 km/h 22.5 km/h 65 % 0 mm 162 W/m2
14:55 6.9 °C 0.6 °C 1019.9 hPa WNW 9.7 km/h 17.7 km/h 64 % 0 mm 213 W/m2
15:00 7.1 °C 0.7 °C 1019.9 hPa WNW 8 km/h 16.1 km/h 64 % 0 mm 279 W/m2
15:05 7.3 °C 0.5 °C 1019.9 hPa WNW 6.4 km/h 12.9 km/h 62 % 0 mm 334 W/m2
15:10 7.6 °C 0.6 °C 1019.9 hPa WNW 6.4 km/h 14.5 km/h 61 % 0 mm 295 W/m2
15:15 8 °C 0.4 °C 1019.9 hPa WNW 6.4 km/h 14.5 km/h 59 % 0 mm 283 W/m2
15:20 8.2 °C -0.1 °C 1019.9 hPa NW 8 km/h 22.5 km/h 56 % 0 mm 250 W/m2
15:25 8.4 °C 0.6 °C 1019.9 hPa NW 9.7 km/h 22.5 km/h 58 % 0 mm 269 W/m2
15:30 8.4 °C 0.4 °C 1019.9 hPa NNW 8 km/h 17.7 km/h 57 % 0 mm 295 W/m2
15:35 8.3 °C -0.2 °C 1019.5 hPa North 8 km/h 16.1 km/h 55 % 0 mm 278 W/m2
15:40 8.4 °C 0.1 °C 1019.5 hPa North 6.4 km/h 16.1 km/h 56 % 0 mm 288 W/m2
15:45 8.3 °C -0.2 °C 1019.5 hPa NNE 6.4 km/h 14.5 km/h 55 % 0 mm 279 W/m2
15:50 8.3 °C -0.7 °C 1019.5 hPa NNE 6.4 km/h 14.5 km/h 53 % 0 mm 276 W/m2
15:55 8.4 °C -0.6 °C 1019.5 hPa North 3.2 km/h 12.9 km/h 53 % 0 mm 278 W/m2
16:00 8.6 °C -0.4 °C 1019.5 hPa NNW 1.6 km/h 9.7 km/h 53 % 0 mm 248 W/m2
16:05 8.8 °C -0.3 °C 1019.5 hPa NW 4.8 km/h 14.5 km/h 53 % 0 mm 197 W/m2
16:10 8.9 °C -0.2 °C 1019.5 hPa NW 8 km/h 17.7 km/h 53 % 0 mm 181 W/m2
16:15 8.9 °C 0.1 °C 1019.5 hPa NW 9.7 km/h 17.7 km/h 54 % 0 mm 178 W/m2
16:20 8.9 °C -0.2 °C 1019.5 hPa NW 6.4 km/h 16.1 km/h 53 % 0 mm 264 W/m2
16:25 9 °C 0.2 °C 1019.5 hPa NW 6.4 km/h 14.5 km/h 54 % 0 mm 330 W/m2
16:30 9.3 °C 0.4 °C 1019.5 hPa WNW 8 km/h 14.5 km/h 54 % 0 mm 694 W/m2
16:35 9.7 °C 0.1 °C 1019.5 hPa West 8 km/h 14.5 km/h 51 % 0 mm 777 W/m2
16:40 9.9 °C -0.1 °C 1019.5 hPa NW 11.3 km/h 24.1 km/h 50 % 0 mm 738 W/m2
16:42 9.8 °C -0.4 °C 1019.5 hPa NNW 11.3 km/h 24.1 km/h 49 % 0 mm 272 W/m2
16:47 9.2 °C -0.2 °C 1019.5 hPa NNE 14.5 km/h 24.1 km/h 52 % 0 mm 218 W/m2
16:52 8.8 °C 0 °C 1019.5 hPa NNE 9.7 km/h 22.5 km/h 54 % 0 mm 190 W/m2
16:57 8.7 °C 0.2 °C 1019.5 hPa NNE 4.8 km/h 14.5 km/h 55 % 0 mm 186 W/m2
17:02 8.6 °C 0.1 °C 1019.5 hPa NE 3.2 km/h 11.3 km/h 55 % 0 mm 185 W/m2
17:12 8.5 °C 0.2 °C 1019.5 hPa NNE 8 km/h 16.1 km/h 56 % 0 mm 543 W/m2
17:17 8.6 °C 0.3 °C 1019.5 hPa NE 6.4 km/h 16.1 km/h 56 % 0 mm 232 W/m2
17:22 8.6 °C 0.3 °C 1019.5 hPa NE 6.4 km/h 14.5 km/h 56 % 0 mm 179 W/m2
17:27 8.5 °C -0.3 °C 1019.5 hPa NNE 6.4 km/h 14.5 km/h 54 % 0 mm 223 W/m2
17:32 8.6 °C 0.1 °C 1019.5 hPa NE 6.4 km/h 14.5 km/h 55 % 0 mm 527 W/m2
17:37 8.7 °C 0.2 °C 1019.5 hPa ENE 4.8 km/h 12.9 km/h 55 % 0 mm 236 W/m2
17:42 8.9 °C 0.3 °C 1019.5 hPa ENE 3.2 km/h 12.9 km/h 55 % 0 mm 438 W/m2
17:47 9.2 °C 0.4 °C 1019.5 hPa ENE 3.2 km/h 11.3 km/h 54 % 0 mm 221 W/m2
17:52 9.2 °C 0.1 °C 1019.5 hPa NE 4.8 km/h 14.5 km/h 53 % 0 mm 178 W/m2
17:57 9.3 °C 0.2 °C 1019.5 hPa NNE 4.8 km/h 14.5 km/h 53 % 0 mm 401 W/m2
18:02 9.1 °C 0 °C 1019.5 hPa NE 8 km/h 20.9 km/h 53 % 0 mm 88 W/m2
18:07 8.5 °C -0.1 °C 1019.9 hPa NE 12.9 km/h 25.7 km/h 55 % 0 mm 77 W/m2
18:13 8.2 °C 0.4 °C 1019.9 hPa NNE 11.3 km/h 25.7 km/h 58 % 0 mm 65 W/m2
18:18 7.8 °C 0.5 °C 1019.9 hPa NNE 9.7 km/h 22.5 km/h 60 % 0 mm 60 W/m2
18:23 7.6 °C 0.8 °C 1019.9 hPa NNE 11.3 km/h 19.3 km/h 62 % 0 mm 72 W/m2
18:28 7.4 °C 0.8 °C 1019.9 hPa NNE 6.4 km/h 17.7 km/h 63 % 0 mm 90 W/m2
18:33 7.4 °C 0.6 °C 1019.9 hPa NE 3.2 km/h 9.7 km/h 62 % 0 mm 81 W/m2
18:38 7.4 °C 0.4 °C 1019.9 hPa NE 3.2 km/h 11.3 km/h 61 % 0 mm 93 W/m2
18:43 7.3 °C 0.3 °C 1019.9 hPa NE 4.8 km/h 14.5 km/h 61 % 0 mm 83 W/m2
18:48 7.3 °C 0.1 °C 1019.9 hPa NE 3.2 km/h 14.5 km/h 60 % 0 mm 72 W/m2
18:53 7.4 °C -0.1 °C 1019.9 hPa NE 1.6 km/h 11.3 km/h 59 % 0 mm 156 W/m2
18:58 7.6 °C -0.4 °C 1019.9 hPa NE 3.2 km/h 12.9 km/h 57 % 0 mm 81 W/m2
19:03 7.6 °C -0.2 °C 1019.9 hPa NE 3.2 km/h 12.9 km/h 58 % 0 mm 77 W/m2
19:08 7.6 °C -0.4 °C 1019.9 hPa NNE 6.4 km/h 16.1 km/h 57 % 0 mm 74 W/m2
19:13 7.4 °C -0.6 °C 1019.9 hPa NNE 6.4 km/h 16.1 km/h 57 % 0 mm 67 W/m2
19:18 7.4 °C -0.6 °C 1019.9 hPa NNE 6.4 km/h 19.3 km/h 57 % 0 mm 56 W/m2
19:23 7.3 °C -0.4 °C 1019.9 hPa NNE 8 km/h 19.3 km/h 58 % 0 mm 49 W/m2
19:28 7.2 °C -0.3 °C 1019.9 hPa NE 8 km/h 19.3 km/h 59 % 0 mm 47 W/m2
19:33 7.1 °C -0.2 °C 1020.2 hPa NE 6.4 km/h 16.1 km/h 60 % 0 mm 51 W/m2
19:38 7 °C -0.2 °C 1020.2 hPa NNE 4.8 km/h 12.9 km/h 60 % 0 mm 35 W/m2
19:43 6.9 °C -0.1 °C 1020.2 hPa NNE 6.4 km/h 12.9 km/h 61 % 0 mm 32 W/m2
19:48 6.8 °C -0.2 °C 1020.2 hPa NNE 8 km/h 14.5 km/h 61 % 0 mm 23 W/m2
19:53 6.8 °C 0 °C 1020.2 hPa NNE 6.4 km/h 14.5 km/h 62 % 0 mm 19 W/m2
19:58 6.7 °C 0.2 °C 1020.2 hPa NNE 6.4 km/h 12.9 km/h 63 % 0 mm 16 W/m2
20:03 6.6 °C 0.3 °C 1020.2 hPa NNE 3.2 km/h 12.9 km/h 64 % 0 mm 14 W/m2
20:08 6.6 °C 0.3 °C 1020.5 hPa North 1.6 km/h 11.3 km/h 64 % 0 mm 11 W/m2
20:13 6.4 °C 0.1 °C 1020.5 hPa NNE 3.2 km/h 11.3 km/h 64 % 0 mm 9 W/m2
20:18 6.4 °C 0.1 °C 1020.2 hPa NNE 3.2 km/h 9.7 km/h 64 % 0 mm 7 W/m2
20:23 6.3 °C 0 °C 1020.5 hPa NNE 1.6 km/h 9.7 km/h 64 % 0 mm 5 W/m2
20:28 6.3 °C 0.2 °C 1020.5 hPa Calm   6.4 km/h 65 % 0 mm 0 W/m2
20:33 6.2 °C 0.1 °C 1020.5 hPa Calm   6.4 km/h 65 % 0 mm 0 W/m2
20:38 6.1 °C 0 °C 1020.5 hPa Calm   4.8 km/h 65 % 0 mm 0 W/m2
20:43 6.1 °C 0.2 °C 1020.5 hPa Calm   9.7 km/h 66 % 0 mm 0 W/m2
20:48 6 °C 0.1 °C 1020.5 hPa NNE 1.6 km/h 9.7 km/h 66 % 0 mm 0 W/m2
20:52 6 °C 0.1 °C 1020.5 hPa Calm   3.2 km/h 66 % 0 mm 0 W/m2
20:57 6 °C 0.3 °C 1020.5 hPa Calm   3.2 km/h 67 % 0 mm 0 W/m2
21:02 5.9 °C 0.2 °C 1020.5 hPa Calm   3.2 km/h 67 % 0 mm 0 W/m2
21:07 5.8 °C 0.2 °C 1020.5 hPa Calm   1.6 km/h 67 % 0 mm 0 W/m2
21:12 5.8 °C 0.3 °C 1020.5 hPa Calm   3.2 km/h 68 % 0 mm 0 W/m2
21:17 5.7 °C 0.2 °C 1020.5 hPa Calm   3.2 km/h 68 % 0 mm 0 W/m2
21:22 5.7 °C 0.2 °C 1020.5 hPa Calm   3.2 km/h 68 % 0 mm 0 W/m2
21:27 5.6 °C 0.3 °C 1020.5 hPa Calm   1.6 km/h 69 % 0 mm 0 W/m2
21:32 5.4 °C 0.2 °C 1020.5 hPa Calm   3.2 km/h 69 % 0 mm 0 W/m2
21:37 5.3 °C 0.1 °C 1020.5 hPa Calm   3.2 km/h 69 % 0 mm 0 W/m2
21:42 5.2 °C 0.2 °C 1020.5 hPa Calm     70 % 0 mm 0 W/m2
21:47 5.1 °C 0.3 °C 1020.5 hPa Calm   1.6 km/h 71 % 0 mm 0 W/m2
21:52 4.8 °C 0.4 °C 1020.5 hPa Calm   1.6 km/h 73 % 0 mm 0 W/m2
21:57 4.6 °C 0.3 °C 1020.5 hPa Calm     74 % 0 mm 0 W/m2
22:02 4.4 °C 0.3 °C 1020.9 hPa Calm     75 % 0 mm 0 W/m2
22:07 4.2 °C 0.3 °C 1020.9 hPa Calm   1.6 km/h 76 % 0 mm 0 W/m2
22:12 3.9 °C 0.2 °C 1020.9 hPa Calm   1.6 km/h 77 % 0 mm 0 W/m2
22:17 3.7 °C 0.2 °C 1020.9 hPa Calm   1.6 km/h 78 % 0 mm 0 W/m2
22:22 3.4 °C 0.1 °C 1020.9 hPa Calm     79 % 0 mm 0 W/m2
22:32 3 °C -0.1 °C 1020.9 hPa Calm   1.6 km/h 80 % 0 mm 0 W/m2
22:37 2.8 °C -0.1 °C 1020.9 hPa Calm     81 % 0 mm 0 W/m2
22:42 2.7 °C -0.1 °C 1020.9 hPa Calm   1.6 km/h 82 % 0 mm 0 W/m2
22:47 2.6 °C -0.2 °C 1020.9 hPa Calm   1.6 km/h 82 % 0 mm 0 W/m2
22:52 2.5 °C -0.3 °C 1020.9 hPa Calm   1.6 km/h 82 % 0 mm 0 W/m2
22:57 2.3 °C -0.3 °C 1020.9 hPa Calm   1.6 km/h 83 % 0 mm 0 W/m2
23:02 2.2 °C -0.4 °C 1020.9 hPa Calm   1.6 km/h 83 % 0 mm 0 W/m2
23:07 2.1 °C -0.5 °C 1020.9 hPa Calm   1.6 km/h 83 % 0 mm 0 W/m2
23:12 2 °C -0.6 °C 1020.9 hPa Calm   1.6 km/h 83 % 0 mm 0 W/m2
23:17 1.9 °C -0.5 °C 1020.9 hPa Calm   1.6 km/h 84 % 0 mm 0 W/m2
23:22 1.8 °C -0.6 °C 1020.9 hPa Calm     84 % 0 mm 0 W/m2
23:27 1.8 °C -0.6 °C 1020.9 hPa Calm     84 % 0 mm 0 W/m2
23:32 1.7 °C -0.6 °C 1020.9 hPa Calm     85 % 0 mm 0 W/m2
23:37 1.6 °C -0.7 °C 1020.9 hPa Calm     85 % 0 mm 0 W/m2
23:42 1.5 °C -0.7 °C 1020.9 hPa Calm     85 % 0 mm 0 W/m2
23:47 1.4 °C -0.8 °C 1020.5 hPa Calm     85 % 0 mm 0 W/m2
23:52 1.3 °C -0.9 °C 1020.5 hPa Calm     85 % 0 mm 0 W/m2
23:57 1.2 °C -1.1 °C 1020.5 hPa Calm     85 % 0 mm 0 W/m2
Delerius-Weather
Compliments of Weather Underground - 2.25 mb

Data updates at regular intervals.